FW6984 Weather Reports


Display with metric or nautical units.
time (UTC)temp
F
wind
direction
speed
MPH
gust
MPH
rain 1hr
in
rain 24hr
in
rain mn
in
humidity
%
barometer
mb
20260510211508 89 132 3.0 5.0 0.00 0.00 0.00 13 1004.4
20260510211008 89 43 1.0 10.0 0.00 0.00 0.00 14 1004.5
20260510210511 89 27 4.0 11.0 0.00 0.00 0.00 14 1004.5
20260510210009 88 341 8.0 13.0 0.00 0.00 0.00 14 1004.5
20260510205510 87 315 9.0 13.0 0.00 0.00 0.00 14 1004.5
20260510205008 87 333 2.0 17.0 0.00 0.00 0.00 14 1004.6
20260510204509 87 346 10.0 17.0 0.00 0.00 0.00 14 1004.7
20260510204006 88 19 11.0 17.0 0.00 0.00 0.00 14 1004.6
20260510203507 88 14 8.0 17.0 0.00 0.00 0.00 14 1004.6
20260510203005 88 321 10.0 16.0 0.00 0.00 0.00 14 1004.7
20260510202506 88 337 8.0 16.0 0.00 0.00 0.00 14 1004.7
20260510202005 88 306 10.0 16.0 0.00 0.00 0.00 14 1004.8
20260510201504 89 41 4.0 14.0 0.00 0.00 0.00 14 1004.7
20260510201004 90 15 8.0 12.0 0.00 0.00 0.00 14 1004.8
20260510200506 89 35 1.0 11.0 0.00 0.00 0.00 13 1004.8
20260510200006 89 116 3.0 8.0 0.00 0.00 0.00 13 1004.8
20260510195501 88 13 1.0 8.0 0.00 0.00 0.00 14 1004.9
20260510195100 88 301 3.0 9.0 0.00 0.00 0.00 14 1005.0
20260510194611 88 297 4.0 15.0 0.00 0.00 0.00 14 1005.0
20260510194100 88 300 5.0 15.0 0.00 0.00 0.00 14 1005.0
20260510193559 88 324 7.0 14.0 0.00 0.00 0.00 14 1005.0
20260510193106 88 29 8.0 14.0 0.00 0.00 0.00 14 1005.0
20260510192557 88 355 8.0 22.0 0.00 0.00 0.00 14 1005.0
20260510192057 88 344 11.0 22.0 0.00 0.00 0.00 14 1005.1
20260510191605 89 168 0.0 9.0 0.00 0.00 0.00 14 1005.2
20260510191055 88 193 4.0 9.0 0.00 0.00 0.00 14 1005.2
20260510190554 88 149 1.0 11.0 0.00 0.00 0.00 14 1005.2
20260510190059 87 250 5.0 11.0 0.00 0.00 0.00 15 1005.3
20260510185554 87 22 2.0 8.0 0.00 0.00 0.00 15 1005.4
20260510185053 87 21 3.0 9.0 0.00 0.00 0.00 15 1005.5
20260510184600 87 285 3.0 9.0 0.00 0.00 0.00 15 1005.5
20260510184054 87 252 5.0 11.0 0.00 0.00 0.00 15 1005.5
20260510183552 87 298 4.0 11.0 0.00 0.00 0.00 15 1005.5
20260510183051 87 344 5.0 10.0 0.00 0.00 0.00 15 1005.6
20260510182552 87 279 3.0 10.0 0.00 0.00 0.00 15 1005.6
20260510182049 86 268 2.0 12.0 0.00 0.00 0.00 15 1005.6
20260510181553 86 279 5.0 15.0 0.00 0.00 0.00 15 1005.7
20260510181047 86 300 9.0 16.0 0.00 0.00 0.00 15 1005.7
20260510180546 86 308 10.0 16.0 0.00 0.00 0.00 16 1005.7
20260510180045 86 15 8.0 13.0 0.00 0.00 0.00 16 1005.8
20260510175543 86 302 4.0 11.0 0.00 0.00 0.00 15 1005.8
20260510175044 86 304 3.0 8.0 0.00 0.00 0.00 15 1005.9
20260510174544 85 51 1.0 10.0 0.00 0.00 0.00 16 1006.0
20260510174039 85 48 6.0 16.0 0.00 0.00 0.00 16 1006.0
20260510173538 85 80 7.0 16.0 0.00 0.00 0.00 16 1005.9
20260510173039 85 41 7.0 15.0 0.00 0.00 0.00 16 1005.9
20260510172536 85 14 8.0 14.0 0.00 0.00 0.00 17 1005.9
20260510172039 85 125 5.0 16.0 0.00 0.00 0.00 16 1005.9
20260510171535 85 337 8.0 16.0 0.00 0.00 0.00 16 1005.9
20260510171032 85 45 5.0 12.0 0.00 0.00 0.00 16 1005.9
20260510170533 85 118 3.0 15.0 0.00 0.00 0.00 16 1005.8
20260510170029 85 29 8.0 18.0 0.00 0.00 0.00 17 1005.9
20260510165528 85 42 11.0 18.0 0.00 0.00 0.00 17 1005.7
20260510165026 84 22 9.0 18.0 0.00 0.00 0.00 17 1005.7
20260510164524 84 4 7.0 21.0 0.00 0.00 0.00 17 1005.6
20260510164022 84 21 14.0 21.0 0.00 0.00 0.00 17 1005.6
20260510163521 83 50 11.0 18.0 0.00 0.00 0.00 18 1005.5
20260510163020 83 50 11.0 18.0 0.00 0.00 0.00 17 1005.5
20260510162519 83 58 11.0 19.0 0.00 0.00 0.00 18 1005.5
20260510162017 82 45 12.0 19.0 0.00 0.00 0.00 18 1005.5
20260510161519 83 51 14.0 20.0 0.00 0.00 0.00 18 1005.5
20260510161014 83 54 14.0 23.0 0.00 0.00 0.00 18 1005.4
20260510160514 82 23 16.0 24.0 0.00 0.00 0.00 18 1005.4
20260510160018 82 19 16.0 24.0 0.00 0.00 0.00 18 1005.4
20260510155513 82 344 12.0 23.0 0.00 0.00 0.00 18 1005.4
20260510155010 82 360 14.0 20.0 0.00 0.00 0.00 18 1005.4
20260510154507 82 350 13.0 21.0 0.00 0.00 0.00 19 1005.3
20260510154006 82 34 16.0 21.0 0.00 0.00 0.00 19 1005.3
20260510153505 82 33 14.0 19.0 0.00 0.00 0.00 19 1005.2
20260510153006 82 39 13.0 20.0 0.00 0.00 0.00 19 1005.1
20260510152502 81 10 13.0 20.0 0.00 0.00 0.00 19 1005.1
20260510152000 81 9 12.0 22.0 0.00 0.00 0.00 19 1005.1
20260510151605 81 18 15.0 24.0 0.00 0.00 0.00 19 1005.1
20260510151058 80 41 18.0 24.0 0.00 0.00 0.00 19 1005.1
20260510150557 80 48 13.0 21.0 0.00 0.00 0.00 19 1005.1
20260510150057 79 33 13.0 21.0 0.00 0.00 0.00 20 1005.1
20260510145553 78 17 15.0 20.0 0.00 0.00 0.00 20 1005.2
20260510145051 77 6 12.0 18.0 0.00 0.00 0.00 21 1005.1
20260510144551 76 39 10.0 17.0 0.00 0.00 0.00 21 1005.0
20260510144049 76 24 12.0 16.0 0.00 0.00 0.00 21 1005.0
20260510143548 75 11 10.0 14.0 0.00 0.00 0.00 21 1005.1
20260510143046 75 19 10.0 14.0 0.00 0.00 0.00 22 1005.0
20260510142545 74 33 9.0 17.0 0.00 0.00 0.00 22 1005.0
20260510142044 74 8 8.0 17.0 0.00 0.00 0.00 22 1005.0
20260510141544 73 23 10.0 17.0 0.00 0.00 0.00 22 1004.9
20260510141041 72 345 11.0 17.0 0.00 0.00 0.00 22 1004.9
20260510140539 72 31 12.0 17.0 0.00 0.00 0.00 22 1004.8
20260510140040 72 24 10.0 17.0 0.00 0.00 0.00 23 1004.7
20260510135537 71 30 12.0 18.0 0.00 0.00 0.00 23 1004.8
20260510135035 71 34 12.0 17.0 0.00 0.00 0.00 23 1004.6
20260510134537 71 40 12.0 17.0 0.00 0.00 0.00 23 1004.7
20260510134031 71 32 12.0 19.0 0.00 0.00 0.00 23 1004.8
20260510133532 71 17 13.0 20.0 0.00 0.00 0.00 23 1004.8
20260510133029 70 8 12.0 16.0 0.00 0.00 0.00 23 1004.7
20260510132527 70 360 10.0 16.0 0.00 0.00 0.00 23 1004.8
20260510132029 69 350 10.0 15.0 0.00 0.00 0.00 24 1004.8
20260510131525 68 13 8.0 13.0 0.00 0.00 0.00 25 1004.8
20260510131023 67 10 7.0 11.0 0.00 0.00 0.00 26 1004.7
20260510130522 67 16 8.0 12.0 0.00 0.00 0.00 26 1004.7
20260510130122 66 360 8.0 12.0 0.00 0.00 0.00 26 1004.7
20260510125519 66 360 8.0 14.0 0.00 0.00 0.00 26 1004.6
20260510125016 66 31 9.0 14.0 0.00 0.00 0.00 26 1004.5
20260510124515 66 39 10.0 14.0 0.00 0.00 0.00 26 1004.4
20260510124018 67 33 10.0 14.0 0.00 0.00 0.00 25 1004.4
20260510123513 67 13 8.0 12.0 0.00 0.00 0.00 25 1004.5
20260510123011 68 21 8.0 13.0 0.00 0.00 0.00 24 1004.4
20260510122509 68 21 9.0 16.0 0.00 0.00 0.00 24 1004.3
20260510122008 68 11 10.0 16.0 0.00 0.00 0.00 24 1004.2
20260510121507 67 22 8.0 11.0 0.00 0.00 0.00 24 1004.0
20260510121006 67 24 7.0 10.0 0.00 0.00 0.00 24 1004.0
20260510120508 68 30 5.0 11.0 0.00 0.00 0.00 24 1003.9
20260510120005 67 22 8.0 12.0 0.00 0.00 0.00 24 1003.8
20260510115504 67 39 7.0 12.0 0.00 0.00 0.00 24 1003.8
20260510115001 68 59 6.0 9.0 0.00 0.00 0.00 24 1003.7
20260510114603 68 59 5.0 9.0 0.00 0.00 0.00 24 1003.7
20260510114101 68 64 6.0 11.0 0.00 0.00 0.00 24 1003.7
20260510113559 69 50 7.0 11.0 0.00 0.00 0.00 23 1003.7
20260510113059 69 76 7.0 11.0 0.00 0.00 0.00 23 1003.6
20260510112559 70 77 7.0 11.0 0.00 0.00 0.00 23 1003.7
20260510112100 70 65 7.0 11.0 0.00 0.00 0.00 22 1003.6
20260510111558 70 48 6.0 9.0 0.00 0.00 0.00 22 1003.7
20260510111057 70 23 5.0 9.0 0.00 0.00 0.00 22 1003.6
20260510110557 71 29 5.0 11.0 0.00 0.00 0.00 22 1003.6
20260510110101 71 35 5.0 11.0 0.00 0.00 0.00 22 1003.5
20260510105557 70 26 3.0 11.0 0.00 0.00 0.00 22 1003.5
20260510105055 70 35 6.0 13.0 0.00 0.00 0.00 22 1003.3
20260510104555 70 32 7.0 13.0 0.00 0.00 0.00 22 1003.3
20260510104056 69 28 6.0 12.0 0.00 0.00 0.00 23 1003.3
20260510103555 68 43 7.0 12.0 0.00 0.00 0.00 23 1003.3
20260510103100 68 35 9.0 12.0 0.00 0.00 0.00 24 1003.3
20260510102555 68 46 8.0 12.0 0.00 0.00 0.00 24 1003.2
20260510102053 69 34 9.0 11.0 0.00 0.00 0.00 24 1003.3
20260510101600 70 29 8.0 11.0 0.00 0.00 0.00 23 1003.3
20260510101050 70 65 8.0 11.0 0.00 0.00 0.00 22 1003.3
20260510100549 69 52 5.0 9.0 0.00 0.00 0.00 23 1003.2
20260510100049 68 67 7.0 9.0 0.00 0.00 0.00 24 1003.2
20260510095547 68 76 7.0 9.0 0.00 0.00 0.00 24 1003.2
20260510095044 69 93 5.0 9.0 0.00 0.00 0.00 23 1003.2
20260510094547 69 68 4.0 9.0 0.00 0.00 0.00 23 1003.1
20260510094044 69 86 4.0 9.0 0.00 0.00 0.00 23 1003.1
20260510093543 68 93 5.0 9.0 0.00 0.00 0.00 23 1003.0
20260510093042 69 50 5.0 7.0 0.00 0.00 0.00 23 1002.9
20260510092540 69 69 5.0 7.0 0.00 0.00 0.00 22 1002.9
20260510092039 70 66 3.0 6.0 0.00 0.00 0.00 22 1002.9
20260510091539 70 61 3.0 5.0 0.00 0.00 0.00 22 1002.8
20260510091038 70 95 2.0 4.0 0.00 0.00 0.00 21 1002.7
20260510090538 71 145 1.0 5.0 0.00 0.00 0.00 20 1002.7
20260510090039 72 146 2.0 5.0 0.00 0.00 0.00 20 1002.8
20260510085537 72 146 2.0 7.0 0.00 0.00 0.00 19 1002.7
20260510085038 72 122 3.0 6.0 0.00 0.00 0.00 19 1002.7
20260510084535 72 189 4.0 5.0 0.00 0.00 0.00 19 1002.7
20260510084035 72 189 3.0 6.0 0.00 0.00 0.00 19 1002.6
20260510083534 72 188 4.0 6.0 0.00 0.00 0.00 19 1002.5
20260510083034 72 204 4.0 6.0 0.00 0.00 0.00 19 1002.4
20260510082534 72 145 2.0 7.0 0.00 0.00 0.00 19 1002.3
20260510082036 72 144 3.0 9.0 0.00 0.00 0.00 20 1002.3
20260510081539 71 128 5.0 9.0 0.00 0.00 0.00 19 1002.4
20260510081033 71 93 3.0 7.0 0.00 0.00 0.00 20 1002.5
20260510080532 72 115 4.0 7.0 0.00 0.00 0.00 19 1002.4
20260510080033 72 165 2.0 8.0 0.00 0.00 0.00 19 1002.3
20260510075531 72 161 5.0 8.0 0.00 0.00 0.00 19 1002.3
20260510075031 71 159 4.0 6.0 0.00 0.00 0.00 20 1002.3
20260510074532 71 158 3.0 6.0 0.00 0.00 0.00 20 1002.3
20260510074032 71 148 3.0 6.0 0.00 0.00 0.00 20 1002.3
20260510073533 71 123 2.0 7.0 0.00 0.00 0.00 20 1002.3
20260510073031 71 128 3.0 8.0 0.00 0.00 0.00 20 1002.4
20260510072531 71 129 3.0 9.0 0.00 0.00 0.00 20 1002.3
20260510072033 71 145 4.0 9.0 0.00 0.00 0.00 20 1002.4
20260510071531 70 162 6.0 9.0 0.00 0.00 0.00 20 1002.2
20260510071028 71 133 4.0 7.0 0.00 0.00 0.00 20 1002.2
20260510070526 73 102 2.0 4.0 0.00 0.00 0.00 20 1002.3
20260510070032 74 26 2.0 4.0 0.00 0.00 0.00 18 1002.2
20260510065525 75 293 1.0 5.0 0.00 0.00 0.00 17 1002.2
20260510065028 75 285 3.0 5.0 0.00 0.00 0.00 17 1002.1
20260510064524 75 285 2.0 5.0 0.00 0.00 0.00 17 1002.2
20260510064023 75 287 3.0 8.0 0.00 0.00 0.00 17 1002.2
20260510063523 75 302 4.0 8.0 0.00 0.00 0.00 17 1002.2
20260510063023 75 297 3.0 5.0 0.00 0.00 0.00 17 1002.2
20260510062523 75 292 2.0 3.0 0.00 0.00 0.00 17 1002.2
20260510062028 75 304 0.0 10.0 0.00 0.00 0.00 17 1002.2
20260510061527 75 305 3.0 10.0 0.00 0.00 0.00 17 1002.2
20260510061022 75 294 2.0 11.0 0.00 0.00 0.00 17 1002.1
20260510060525 75 292 6.0 11.0 0.00 0.00 0.00 17 1002.2
20260510060019 74 295 3.0 8.0 0.00 0.00 0.00 18 1002.2
20260510055518 73 301 2.0 5.0 0.00 0.00 0.00 18 1002.2
20260510055018 72 198 0.0 2.0 0.00 0.00 0.00 19 1002.2
20260510054518 72 198 0.0 2.0 0.00 0.00 0.00 19 1002.3
20260510054018 72 198 0.0 5.0 0.00 0.00 0.00 19 1002.3
20260510053517 71 143 2.0 5.0 0.00 0.00 0.00 20 1002.3
20260510053017 71 172 2.0 4.0 0.00 0.00 0.00 19 1002.2
20260510052517 72 172 1.0 4.0 0.00 0.00 0.00 19 1002.3
20260510052017 73 172 2.0 5.0 0.00 0.00 0.00 19 1002.3
20260510051528 75 172 3.0 5.0 0.00 0.00 0.00 17 1002.3
20260510051016 76 226 1.0 3.0 0.00 0.00 0.00 16 1002.4
20260510050516 77 279 1.0 2.0 0.00 0.00 0.00 16 1002.4
20260510050016 77 279 0.0 3.0 0.00 0.00 0.00 16 1002.4
20260510045519 78 279 1.0 7.0 0.00 0.00 0.00 15 1002.4
20260510045017 78 284 2.0 7.0 0.00 0.00 0.00 15 1002.4
20260510044514 78 266 3.0 6.0 0.00 0.00 0.00 15 1002.4
20260510044014 78 252 3.0 7.0 0.00 0.00 0.00 15 1002.3
20260510043514 79 264 3.0 7.0 0.00 0.00 0.00 15 1002.3
20260510043021 79 267 4.0 10.0 0.00 0.00 0.00 15 1002.3
20260510042514 79 260 6.0 10.0 0.00 0.00 0.00 15 1002.3
20260510042014 79 279 5.0 9.0 0.00 0.00 0.00 15 1002.2
20260510041514 79 259 2.0 7.0 0.00 0.00 0.00 15 1002.2
20260510041014 80 263 3.0 9.0 0.00 0.00 0.00 15 1002.2
20260510040514 80 249 5.0 12.0 0.00 0.00 0.00 14 1002.1
20260510040014 80 249 6.0 12.0 0.00 0.00 0.00 14 1002.0
20260510035513 80 236 7.0 13.0 0.00 0.00 0.00 14 1002.0
20260510035013 80 264 5.0 13.0 0.00 0.00 0.00 14 1001.9
20260510034513 81 258 6.0 13.0 0.00 0.00 0.00 14 1001.9
20260510034017 81 249 6.0 12.0 0.00 0.00 0.00 14 1001.8
20260510033512 81 241 6.0 12.0 0.00 0.00 0.00 14 1001.8
20260510033012 82 250 7.0 13.0 0.00 0.00 0.00 14 1001.7
20260510032512 82 241 6.0 13.0 0.00 0.00 0.00 14 1001.7
20260510032012 82 248 6.0 15.0 0.00 0.00 0.00 13 1001.7
20260510031511 82 234 9.0 15.0 0.00 0.00 0.00 13 1001.6
20260510031011 82 252 8.0 13.0 0.00 0.00 0.00 13 1001.5
20260510030511 83 247 8.0 14.0 0.00 0.00 0.00 13 1001.5
20260510030014 83 268 7.0 15.0 0.00 0.00 0.00 13 1001.4
20260510025510 83 234 8.0 14.0 0.00 0.00 0.00 13 1001.3
20260510025011 83 258 8.0 11.0 0.00 0.00 0.00 13 1001.3
20260510024510 83 242 7.0 13.0 0.00 0.00 0.00 13 1001.2
20260510024010 84 247 8.0 13.0 0.00 0.00 0.00 13 1001.1
20260510023510 84 243 8.0 15.0 0.00 0.00 0.00 13 1001.0
20260510023010 84 250 8.0 18.0 0.00 0.00 0.00 13 1000.9
20260510022513 85 252 11.0 18.0 0.00 0.00 0.00 13 1000.8
20260510022010 85 257 11.0 16.0 0.00 0.00 0.00 13 1000.8
20260510021514 85 247 11.0 16.0 0.00 0.00 0.00 13 1000.7
20260510021010 85 252 10.0 17.0 0.00 0.00 0.00 13 1000.6
20260510020509 85 243 9.0 17.0 0.00 0.00 0.00 13 1000.5
20260510020009 85 262 9.0 14.0 0.00 0.00 0.00 13 1000.4
20260510015508 86 253 6.0 12.0 0.00 0.00 0.00 13 1000.4
20260510015007 86 271 6.0 12.0 0.00 0.00 0.00 13 1000.4
20260510014508 87 257 6.0 14.0 0.00 0.00 0.00 12 1000.3
20260510014007 87 254 7.0 14.0 0.00 0.00 0.00 12 1000.2
20260510013507 87 275 8.0 14.0 0.00 0.00 0.00 12 1000.2
20260510013007 87 233 6.0 16.0 0.00 0.00 0.00 12 1000.1
20260510012511 88 241 8.0 16.0 0.00 0.00 0.00 12 1000.1
20260510012006 88 255 10.0 16.0 0.00 0.00 0.00 12 1000.0
20260510011506 88 261 9.0 18.0 0.00 0.00 0.00 12 1000.0
20260510011006 89 253 10.0 18.0 0.00 0.00 0.00 12 1000.0
20260510010505 89 274 8.0 13.0 0.00 0.00 0.00 12 1000.0
20260510010005 89 243 5.0 11.0 0.00 0.00 0.00 12 1000.0
20260510005504 89 237 6.0 11.0 0.00 0.00 0.00 12 1000.0
20260510005003 89 232 3.0 10.0 0.00 0.00 0.00 12 1000.0
20260510004503 89 189 5.0 14.0 0.00 0.00 0.00 12 1000.0
20260510004007 89 177 5.0 14.0 0.00 0.00 0.00 12 1000.0
20260510003503 89 243 6.0 12.0 0.00 0.00 0.00 12 1000.1
20260510003003 89 205 9.0 14.0 0.00 0.00 0.00 12 1000.1
20260510002505 90 223 5.0 14.0 0.00 0.00 0.00 12 1000.0
20260510002002 90 210 7.0 12.0 0.00 0.00 0.00 12 1000.1
20260510001505 90 221 7.0 18.0 0.00 0.00 0.00 12 1000.1
20260510001002 90 209 10.0 18.0 0.00 0.00 0.00 12 1000.1
20260510000501 90 244 7.0 14.0 0.00 0.00 0.00 12 1000.1
20260510000004 90 215 6.0 15.0 0.00 0.00 0.00 12 1000.2
20260509235602 90 233 8.0 15.0 0.00 0.00 0.00 12 1000.3
20260509235101 90 245 6.0 15.0 0.00 0.00 0.00 12 1000.3
20260509234559 90 181 8.0 15.0 0.00 0.00 0.00 11 1000.4
20260509234059 90 196 7.0 13.0 0.00 0.00 0.00 11 1000.4
20260509233559 90 204 5.0 15.0 0.00 0.00 0.00 12 1000.4
20260509233057 90 246 5.0 15.0 0.00 0.00 0.00 11 1000.5
20260509232600 90 285 4.0 16.0 0.00 0.00 0.00 12 1000.6
20260509232057 90 259 10.0 16.0 0.00 0.00 0.00 12 1000.6
20260509231607 90 169 4.0 14.0 0.00 0.00 0.00 11 1000.6
20260509231056 90 198 7.0 13.0 0.00 0.00 0.00 11 1000.7
20260509230559 90 176 7.0 13.0 0.00 0.00 0.00 11 1000.7
20260509230054 91 218 5.0 13.0 0.00 0.00 0.00 11 1000.8
20260509225553 91 268 8.0 13.0 0.00 0.00 0.00 11 1000.9
20260509225051 91 286 1.0 10.0 0.00 0.00 0.00 11 1000.9
20260509224550 91 180 3.0 7.0 0.00 0.00 0.00 11 1000.9
20260509224051 90 258 2.0 12.0 0.00 0.00 0.00 11 1001.0
20260509223548 90 197 7.0 12.0 0.00 0.00 0.00 11 1001.2
20260509223051 90 153 4.0 11.0 0.00 0.00 0.00 11 1001.2
20260509222549 90 127 7.0 13.0 0.00 0.00 0.00 11 1001.2
20260509222045 90 148 7.0 13.0 0.00 0.00 0.00 11 1001.4
20260509221546 90 162 7.0 19.0 0.00 0.00 0.00 11 1001.4
20260509221043 90 126 6.0 19.0 0.00 0.00 0.00 11 1001.5
20260509220543 90 137 9.0 15.0 0.00 0.00 0.00 11 1001.6
20260509220044 90 175 9.0 15.0 0.00 0.00 0.00 11 1001.7
20260509215545 90 210 3.0 10.0 0.00 0.00 0.00 11 1001.7
20260509215041 90 200 5.0 9.0 0.00 0.00 0.00 11 1001.7
20260509214540 90 223 0.0 9.0 0.00 0.00 0.00 11 1001.9
20260509214041 90 269 4.0 11.0 0.00 0.00 0.00 11 1002.0
20260509213538 90 150 3.0 13.0 0.00 0.00 0.00 12 1002.1
20260509213037 90 205 5.0 12.0 0.00 0.00 0.00 11 1002.2
20260509212536 90 193 8.0 12.0 0.00 0.00 0.00 11 1002.3
20260509212035 90 147 0.0 7.0 0.00 0.00 0.00 12 1002.5